,,PA_Meas_PMT16A,,PR_Meas_QMR101_102,,RH_Meas_QMH101,,SR_Meas_QMS101,,TA_Meas_QMH101,,GenWind,,GenWind,
time,status,PA,status,PR,status,RH,status,SR,status,TA,status,DirAvg,status,SpdAvg,
2014-12-24, 00:00:04,VALID,917.441,VALID,0,VALID,96.6573,VALID,0,VALID,19.4313,VALID,278,VALID,0.00195313,
2014-12-24, 00:01:04,VALID,917.435,VALID,0,VALID,96.7411,VALID,0,VALID,19.4103,VALID,278,VALID,0,
2014-12-24, 00:02:04,VALID,917.445,VALID,0,VALID,96.7869,VALID,0,VALID,19.4313,VALID,278,VALID,0,
2014-12-24, 00:03:04,VALID,917.434,VALID,0,VALID,96.825,VALID,0,VALID,19.4508,VALID,278,VALID,0.105469,
2014-12-24, 00:04:04,VALID,917.435,VALID,0,VALID,96.8555,VALID,0,VALID,19.4508,VALID,278,VALID,0,
2014-12-24, 00:05:04,VALID,917.412,VALID,0,VALID,96.8555,VALID,0,VALID,19.4508,VALID,278,VALID,0.0664063,
2014-12-24, 00:06:04,VALID,917.413,VALID,0,VALID,96.8784,VALID,0,VALID,19.4703,VALID,278,VALID,0.101953,
2014-12-24, 00:07:04,VALID,917.438,VALID,0,VALID,96.9089,VALID,0,VALID,19.4898,VALID,278,VALID,0,
2014-12-24, 00:08:04,VALID,917.425,VALID,0,VALID,96.9012,VALID,0,VALID,19.4898,VALID,278,VALID,0,
2014-12-24, 00:09:04,VALID,917.418,VALID,0,VALID,96.9012,VALID,0,VALID,19.4898,VALID,278,VALID,0,
2014-12-24, 00:10:04,VALID,917.408,VALID,0,VALID,96.886,VALID,0,VALID,19.5093,VALID,278,VALID,0,
2014-12-24, 00:11:04,VALID,917.414,VALID,0,VALID,96.8555,VALID,0,VALID,19.5093,VALID,278,VALID,0,
2014-12-24, 00:12:04,VALID,917.425,VALID,0,VALID,96.7945,VALID,0,VALID,19.4898,VALID,278,VALID,0,
2014-12-24, 00:13:04,VALID,917.439,VALID,0,VALID,96.7411,VALID,0,VALID,19.4898,VALID,278,VALID,0,
2014-12-24, 00:14:04,VALID,917.443,VALID,0,VALID,96.7183,VALID,0,VALID,19.4898,VALID,278,VALID,0,
2014-12-24, 00:15:04,VALID,917.459,VALID,0,VALID,96.6497,VALID,0,VALID,19.4508,VALID,278,VALID,0,
2014-12-24, 00:16:04,VALID,917.451,VALID,0,VALID,96.5963,VALID,0,VALID,19.4313,VALID,278,VALID,0,
2014-12-24, 00:17:04,VALID,917.454,VALID,0,VALID,96.5658,VALID,0,VALID,19.4313,VALID,277,VALID,0,
2014-12-24, 00:18:04,VALID,917.448,VALID,0,VALID,96.5429,VALID,0,VALID,19.4313,VALID,278,VALID,0,
2014-12-24, 00:19:04,VALID,917.442,VALID,0,VALID,96.5124,VALID,0,VALID,19.4118,VALID,278,VALID,0,
2014-12-24, 00:20:04,VALID,917.397,VALID,0,VALID,96.4286,VALID,0,VALID,19.3728,VALID,278,VALID,0,
2014-12-24, 00:21:04,VALID,917.367,VALID,0,VALID,96.4057,VALID,0,VALID,19.3533,VALID,278,VALID,0,
2014-12-24, 00:22:04,VALID,917.399,VALID,0,VALID,96.4743,VALID,0,VALID,19.3518,VALID,278,VALID,0,
2014-12-24, 00:23:04,VALID,917.387,VALID,0,VALID,96.4972,VALID,0,VALID,19.3923,VALID,278,VALID,0,
2014-12-24, 00:24:04,VALID,917.345,VALID,0,VALID,96.5124,VALID,0,VALID,19.3728,VALID,278,VALID,0,
2014-12-24, 00:25:04,VALID,917.333,VALID,0,VALID,96.4515,VALID,0,VALID,19.3338,VALID,278,VALID,0.01875,
2014-12-24, 00:26:04,VALID,917.342,VALID,0,VALID,96.4133,VALID,0,VALID,19.2948,VALID,278,VALID,0,
2014-12-24, 00:27:04,VALID,917.323,VALID,0,VALID,96.4057,VALID,0,VALID,19.2753,VALID,278,VALID,0,
2014-12-24, 00:28:04,VALID,917.311,VALID,0,VALID,96.4515,VALID,0,VALID,19.2753,VALID,278,VALID,0,
2014-12-24, 00:29:04,VALID,917.32,VALID,0,VALID,96.4515,VALID,0,VALID,19.2558,VALID,278,VALID,0,
2014-12-24, 00:30:04,VALID,917.248,VALID,0,VALID,96.4819,VALID,0,VALID,19.2363,VALID,278,VALID,0,
2014-12-24, 00:31:04,VALID,917.24,VALID,0,VALID,96.5201,VALID,0,VALID,19.2363,VALID,278,VALID,0,
2014-12-24, 00:32:04,VALID,917.227,VALID,0,VALID,96.5124,VALID,0,VALID,19.1958,VALID,278,VALID,0,
2014-12-24, 00:33:04,VALID,917.204,VALID,0,VALID,96.5124,VALID,0,VALID,19.1778,VALID,278,VALID,0,
2014-12-24, 00:34:04,VALID,917.188,VALID,0,VALID,96.5658,VALID,0,VALID,19.1778,VALID,278,VALID,0,
2014-12-24, 00:35:04,VALID,917.166,VALID,0,VALID,96.5963,VALID,0,VALID,19.1973,VALID,278,VALID,0,
2014-12-24, 00:36:04,VALID,917.144,VALID,0,VALID,96.642,VALID,0,VALID,19.1973,VALID,278,VALID,0,
2014-12-24, 00:37:05,VALID,917.134,VALID,0,VALID,96.6649,VALID,0,VALID,19.1373,VALID,278,VALID,0,
2014-12-24, 00:38:05,VALID,917.11,VALID,0,VALID,96.6725,VALID,0,VALID,19.1388,VALID,278,VALID,0,
2014-12-24, 00:39:05,VALID,917.11,VALID,0,VALID,96.6802,VALID,0,VALID,19.1193,VALID,278,VALID,0,
2014-12-24, 00:40:05,VALID,917.101,VALID,0,VALID,96.7183,VALID,0,VALID,19.0998,VALID,278,VALID,0,
2014-12-24, 00:41:05,VALID,917.078,VALID,0,VALID,96.7564,VALID,0,VALID,19.0803,VALID,278,VALID,0,
2014-12-24, 00:42:05,VALID,917.031,VALID,0,VALID,96.6802,VALID,0,VALID,19.0218,VALID,278,VALID,0,
2014-12-24, 00:43:05,VALID,917.023,VALID,0,VALID,96.7564,VALID,0,VALID,19.0218,VALID,278,VALID,0,
2014-12-24, 00:44:05,VALID,917.004,VALID,0,VALID,96.8479,VALID,0,VALID,19.0218,VALID,278,VALID,0,
2014-12-24, 00:45:05,VALID,916.988,VALID,0,VALID,96.9089,VALID,0,VALID,19.0008,VALID,278,VALID,0,
2014-12-24, 00:46:05,VALID,917.005,VALID,0,VALID,96.9622,VALID,0.107441,VALID,19.0218,VALID,278,VALID,0,
2014-12-24, 00:47:05,VALID,916.984,VALID,0,VALID,97.0308,VALID,0,VALID,19.0203,VALID,278,VALID,0,
2014-12-24, 00:48:05,VALID,916.967,VALID,0,VALID,97.0994,VALID,0,VALID,19.0203,VALID,278,VALID,0,
2014-12-24, 00:49:05,VALID,916.95,VALID,0,VALID,97.1604,VALID,0.107441,VALID,19.0398,VALID,278,VALID,0,
2014-12-24, 00:50:05,VALID,916.932,VALID,0,VALID,97.2062,VALID,0,VALID,19.0593,VALID,278,VALID,0,
2014-12-24, 00:51:05,VALID,916.952,VALID,0,VALID,97.2595,VALID,0.107441,VALID,19.0579,VALID,278,VALID,0,
2014-12-24, 00:52:05,VALID,916.943,VALID,0,VALID,97.2824,VALID,0,VALID,19.0788,VALID,278,VALID,0,
2014-12-24, 00:53:05,VALID,916.939,VALID,0,VALID,97.3205,VALID,0.107441,VALID,19.0788,VALID,278,VALID,0,
2014-12-24, 00:54:05,VALID,916.938,VALID,0,VALID,97.3434,VALID,0,VALID,19.0788,VALID,278,VALID,0,
2014-12-24, 00:55:05,VALID,916.92,VALID,0,VALID,97.351,VALID,0,VALID,19.0983,VALID,278,VALID,0,
2014-12-24, 00:56:05,VALID,916.93,VALID,0,VALID,97.3815,VALID,0,VALID,19.1193,VALID,278,VALID,0,
2014-12-24, 00:57:05,VALID,916.889,VALID,0,VALID,97.3891,VALID,0,VALID,19.0983,VALID,278,VALID,0,
2014-12-24, 00:58:05,VALID,916.903,VALID,0,VALID,97.3739,VALID,0,VALID,19.0983,VALID,278,VALID,0,
2014-12-24, 00:59:05,VALID,916.885,VALID,0,VALID,97.3739,VALID,0,VALID,19.1178,VALID,278,VALID,0,
2014-12-24, 01:00:05,VALID,916.854,VALID,0,VALID,97.3891,VALID,0,VALID,19.1178,VALID,278,VALID,0,
2014-12-24, 01:01:05,VALID,916.863,VALID,0,VALID,97.3663,VALID,0,VALID,19.1178,VALID,278,VALID,0,
2014-12-24, 01:02:05,VALID,916.862,VALID,0,VALID,97.3739,VALID,0.107441,VALID,19.1178,VALID,278,VALID,0,
2014-12-24, 01:03:05,VALID,916.809,VALID,0,VALID,97.3663,VALID,0,VALID,19.1178,VALID,278,VALID,0,
2014-12-24, 01:04:05,VALID,916.812,VALID,0,VALID,97.351,VALID,0.107441,VALID,19.1178,VALID,278,VALID,0,
2014-12-24, 01:05:05,VALID,916.795,VALID,0,VALID,97.351,VALID,0.107441,VALID,19.1373,VALID,278,VALID,0,
2014-12-24, 01:06:05,VALID,916.829,VALID,0,VALID,97.3281,VALID,0,VALID,19.1178,VALID,278,VALID,0,
2014-12-24, 01:07:05,VALID,916.843,VALID,0,VALID,97.3434,VALID,0,VALID,19.1178,VALID,278,VALID,0,
2014-12-24, 01:08:05,VALID,916.835,VALID,0,VALID,97.3205,VALID,0,VALID,19.1568,VALID,278,VALID,0,
2014-12-24, 01:09:05,VALID,916.799,VALID,0,VALID,97.3434,VALID,0,VALID,19.1958,VALID,278,VALID,0,
2014-12-24, 01:10:05,VALID,916.8,VALID,0,VALID,97.3358,VALID,0.107441,VALID,19.1958,VALID,278,VALID,0,
2014-12-24, 01:11:05,VALID,916.781,VALID,0,VALID,97.3281,VALID,0.107441,VALID,19.2168,VALID,278,VALID,0,
2014-12-24, 01:12:05,VALID,916.78,VALID,0,VALID,97.3129,VALID,0,VALID,19.1958,VALID,278,VALID,0,
2014-12-24, 01:13:05,VALID,916.758,VALID,0,VALID,97.2824,VALID,0,VALID,19.2168,VALID,278,VALID,0,
2014-12-24, 01:14:05,VALID,916.767,VALID,0,VALID,97.2443,VALID,0,VALID,19.2153,VALID,278,VALID,0,
2014-12-24, 01:15:05,VALID,916.707,VALID,0,VALID,97.2062,VALID,0,VALID,19.2168,VALID,278,VALID,0,
2014-12-24, 01:16:05,VALID,916.698,VALID,0,VALID,97.1376,VALID,0,VALID,19.1973,VALID,278,VALID,0,
2014-12-24, 01:17:05,VALID,916.656,VALID,0,VALID,97.0918,VALID,0,VALID,19.1778,VALID,278,VALID,0,
2014-12-24, 01:18:05,VALID,916.656,VALID,0,VALID,97.0156,VALID,0,VALID,19.1193,VALID,278,VALID,0,
2014-12-24, 01:19:05,VALID,916.645,VALID,0,VALID,97.0003,VALID,0,VALID,19.1388,VALID,278,VALID,0,
2014-12-24, 01:20:05,VALID,916.668,VALID,0,VALID,97.008,VALID,0,VALID,19.1193,VALID,278,VALID,0,
2014-12-24, 01:21:05,VALID,916.635,VALID,0,VALID,96.9927,VALID,0,VALID,19.1193,VALID,278,VALID,0,
2014-12-24, 01:22:05,VALID,916.616,VALID,0,VALID,97.0308,VALID,0,VALID,19.1388,VALID,278,VALID,0,
2014-12-24, 01:23:05,VALID,916.621,VALID,0,VALID,97.0156,VALID,0,VALID,19.0998,VALID,332,VALID,0,
2014-12-24, 01:24:05,VALID,916.577,VALID,0,VALID,97.0156,VALID,0,VALID,19.0803,VALID,336,VALID,0,
2014-12-24, 01:25:05,VALID,916.562,VALID,0,VALID,97.0385,VALID,0,VALID,19.1193,VALID,336,VALID,0,
2014-12-24, 01:26:05,VALID,916.548,VALID,0,VALID,97.0842,VALID,0,VALID,19.0803,VALID,336,VALID,0,
2014-12-24, 01:27:05,VALID,916.522,VALID,0,VALID,97.1223,VALID,0,VALID,19.0998,VALID,336,VALID,0,
2014-12-24, 01:28:05,VALID,916.55,VALID,0,VALID,97.1528,VALID,0,VALID,19.0608,VALID,336,VALID,0,
2014-12-24, 01:29:05,VALID,916.504,VALID,0,VALID,97.2214,VALID,0,VALID,19.1193,VALID,336,VALID,0,
2014-12-24, 01:30:05,VALID,916.467,VALID,0,VALID,97.2138,VALID,0.107441,VALID,19.1763,VALID,336,VALID,0,
2014-12-24, 01:31:05,VALID,916.437,VALID,0,VALID,97.229,VALID,0,VALID,19.1763,VALID,336,VALID,0,
2014-12-24, 01:32:05,VALID,916.403,VALID,0,VALID,97.2214,VALID,0.107441,VALID,19.2348,VALID,336,VALID,0,
2014-12-24, 01:33:05,VALID,916.441,VALID,0,VALID,97.2062,VALID,0,VALID,19.1763,VALID,336,VALID,0,
2014-12-24, 01:34:05,VALID,916.438,VALID,0,VALID,97.2062,VALID,0,VALID,19.2153,VALID,336,VALID,0,
2014-12-24, 01:35:05,VALID,916.433,VALID,0,VALID,97.1833,VALID,0,VALID,19.2738,VALID,336,VALID,0,
2014-12-24, 01:36:05,VALID,916.425,VALID,0,VALID,97.1452,VALID,0.107441,VALID,19.2753,VALID,336,VALID,0,
2014-12-24, 01:37:05,VALID,916.377,VALID,0,VALID,97.0842,VALID,0,VALID,19.2543,INVALID,360,VALID,0,
2014-12-24, 01:38:05,VALID,916.372,VALID,0,VALID,97.0461,VALID,0.107441,VALID,19.2348,VALID,336,VALID,0,
2014-12-24, 01:39:05,VALID,916.369,VALID,0,VALID,97.0156,VALID,0,VALID,19.2543,VALID,336,VALID,0,
2014-12-24, 01:40:05,VALID,916.297,VALID,0,VALID,97.0003,VALID,0.107441,VALID,19.2933,VALID,336,VALID,0,
2014-12-24, 01:41:05,VALID,916.267,VALID,0,VALID,96.9089,VALID,0,VALID,19.2948,VALID,336,VALID,0,
2014-12-24, 01:42:05,VALID,916.26,VALID,0,VALID,96.7869,VALID,0.107441,VALID,19.2153,VALID,336,VALID,0,
2014-12-24, 01:43:05,VALID,916.252,VALID,0,VALID,96.8021,VALID,0.107441,VALID,19.2153,VALID,336,VALID,0,
2014-12-24, 01:44:05,VALID,916.243,VALID,0,VALID,96.8098,VALID,0,VALID,19.2348,VALID,336,VALID,0,
2014-12-24, 01:45:05,VALID,916.239,VALID,0,VALID,96.825,VALID,0,VALID,19.2753,VALID,336,VALID,0,
2014-12-24, 01:46:05,VALID,916.19,VALID,0,VALID,96.764,VALID,0,VALID,19.2738,VALID,336,VALID,0,
2014-12-24, 01:47:05,VALID,916.187,VALID,0,VALID,96.6878,VALID,0,VALID,19.3338,VALID,336,VALID,0,
2014-12-24, 01:48:05,VALID,916.194,VALID,0,VALID,96.6192,VALID,0,VALID,19.3323,VALID,336,VALID,0,
2014-12-24, 01:49:05,VALID,916.168,VALID,0,VALID,96.5811,VALID,0,VALID,19.4118,VALID,336,VALID,0,
2014-12-24, 01:50:05,VALID,916.153,VALID,0,VALID,96.5429,VALID,0,VALID,19.4313,VALID,336,VALID,0,
2014-12-24, 01:51:05,VALID,916.184,VALID,0,VALID,96.4972,VALID,0,VALID,19.4508,VALID,336,VALID,0,
2014-12-24, 01:52:05,VALID,916.147,VALID,0,VALID,96.3981,VALID,0,VALID,19.4508,VALID,336,VALID,0,
2014-12-24, 01:53:05,VALID,916.135,VALID,0,VALID,96.2533,VALID,0,VALID,19.4298,VALID,336,VALID,0,
2014-12-24, 01:54:05,VALID,916.122,VALID,0,VALID,96.1923,VALID,0,VALID,19.4703,VALID,336,VALID,0,
2014-12-24, 01:55:05,VALID,916.097,VALID,0,VALID,96.1236,VALID,0,VALID,19.4493,VALID,295,VALID,0,
2014-12-24, 01:56:05,VALID,916.03,VALID,0,VALID,96.0398,VALID,0,VALID,19.5093,VALID,295,VALID,0,
2014-12-24, 01:57:05,VALID,916.044,VALID,0,VALID,95.9559,VALID,0,VALID,19.5678,VALID,301,VALID,0,
2014-12-24, 01:58:05,VALID,915.994,VALID,0,VALID,95.4452,VALID,0,VALID,19.6263,VALID,277,VALID,0,
2014-12-24, 01:59:05,VALID,915.99,VALID,0,VALID,94.4617,VALID,0,VALID,19.8018,VALID,284,VALID,0,
2014-12-24, 02:00:05,VALID,915.959,VALID,0,VALID,93.0438,VALID,0,VALID,19.8798,VALID,284,VALID,0,
2014-12-24, 02:01:05,VALID,915.905,VALID,0,VALID,92.5711,VALID,0,VALID,19.9188,VALID,284,VALID,0,
2014-12-24, 02:02:05,VALID,915.899,VALID,0,VALID,92.411,VALID,0,VALID,19.9188,VALID,284,VALID,0,
2014-12-24, 02:03:05,VALID,915.85,VALID,0,VALID,92.4415,VALID,0,VALID,19.9383,VALID,284,VALID,0,
2014-12-24, 02:04:05,VALID,915.858,VALID,0,VALID,91.946,VALID,0,VALID,19.8798,VALID,284,VALID,0,
2014-12-24, 02:05:05,VALID,915.848,VALID,0,VALID,91.5953,VALID,0,VALID,19.9578,VALID,275,VALID,0,
2014-12-24, 02:06:05,VALID,915.801,VALID,0,VALID,91.4352,VALID,0,VALID,20.0163,VALID,276,VALID,0,
2014-12-24, 02:07:05,VALID,915.748,VALID,0,VALID,91.298,VALID,0,VALID,20.0163,VALID,283,VALID,0,
2014-12-24, 02:08:05,VALID,915.752,VALID,0,VALID,91.4429,VALID,0,VALID,20.0163,VALID,284,VALID,0,
2014-12-24, 02:09:05,VALID,915.722,VALID,0,VALID,91.6792,VALID,0,VALID,19.9773,VALID,284,VALID,0,
2014-12-24, 02:10:05,VALID,915.684,VALID,0,VALID,91.9231,VALID,0,VALID,19.9578,VALID,284,VALID,0,
2014-12-24, 02:11:05,VALID,915.67,VALID,0,VALID,92.0909,VALID,0,VALID,19.9578,VALID,284,VALID,0,
2014-12-24, 02:12:05,VALID,915.666,VALID,0,VALID,92.0375,VALID,0,VALID,19.9188,VALID,284,VALID,0,
2014-12-24, 02:13:05,VALID,915.634,VALID,0,VALID,92.0527,VALID,0,VALID,19.8798,VALID,284,VALID,0,
2014-12-24, 02:14:05,VALID,915.637,VALID,0,VALID,92.3882,VALID,0,VALID,19.8408,VALID,284,VALID,0,
2014-12-24, 02:15:05,VALID,915.613,VALID,0,VALID,92.6474,VALID,0,VALID,19.8213,VALID,284,VALID,0,
2014-12-24, 02:16:05,VALID,915.602,VALID,0,VALID,92.9828,VALID,0,VALID,19.8018,VALID,284,VALID,0,
2014-12-24, 02:17:05,VALID,915.595,VALID,0,VALID,93.1886,VALID,0,VALID,19.7628,VALID,284,VALID,0,
2014-12-24, 02:18:05,VALID,915.622,VALID,0,VALID,93.5622,VALID,0,VALID,19.7223,VALID,284,VALID,0,
2014-12-24, 02:19:05,VALID,915.611,VALID,0,VALID,93.6232,VALID,0,VALID,19.7238,VALID,284,VALID,0,
2014-12-24, 02:20:05,VALID,915.612,VALID,0,VALID,93.3182,VALID,0,VALID,19.6653,VALID,284,VALID,0,
2014-12-24, 02:21:05,VALID,915.592,VALID,0,VALID,93.3106,VALID,0,VALID,19.6263,VALID,284,VALID,0,
2014-12-24, 02:22:05,VALID,915.617,VALID,0,VALID,93.6079,VALID,0,VALID,19.6263,VALID,284,VALID,0,
2014-12-24, 02:23:05,VALID,915.585,VALID,0,VALID,93.7833,VALID,0,VALID,19.6068,VALID,284,VALID,0,
2014-12-24, 02:24:05,VALID,915.562,VALID,0,VALID,94.1416,VALID,0,VALID,19.6068,VALID,284,VALID,0,
2014-12-24, 02:25:05,VALID,915.569,VALID,0,VALID,94.416,VALID,0,VALID,19.6263,VALID,284,VALID,0,
2014-12-24, 02:26:05,VALID,915.575,VALID,0,VALID,94.4389,VALID,0,VALID,19.6458,VALID,284,VALID,0,
2014-12-24, 02:27:05,VALID,915.539,VALID,0,VALID,94.2712,VALID,0,VALID,19.6458,VALID,284,VALID,0,
2014-12-24, 02:28:05,VALID,915.539,VALID,0,VALID,94.1721,VALID,0,VALID,19.6053,VALID,284,VALID,0,
2014-12-24, 02:29:05,VALID,915.544,VALID,0,VALID,94.5075,VALID,0,VALID,19.6263,VALID,284,VALID,0,
2014-12-24, 02:30:05,VALID,915.509,VALID,0,VALID,94.7209,VALID,0,VALID,19.6263,VALID,284,VALID,0,
2014-12-24, 02:31:05,VALID,915.504,VALID,0,VALID,94.8658,VALID,0,VALID,19.6068,VALID,284,VALID,0,
2014-12-24, 02:32:05,VALID,915.487,VALID,0,VALID,95.1479,VALID,0,VALID,19.6458,VALID,284,VALID,0,
2014-12-24, 02:33:05,VALID,915.468,VALID,0,VALID,95.186,VALID,0,VALID,19.6458,VALID,284,VALID,0,
2014-12-24, 02:34:05,VALID,915.491,VALID,0,VALID,95.2241,VALID,0,VALID,19.6653,VALID,284,VALID,0,
2014-12-24, 02:35:05,VALID,915.457,VALID,0,VALID,95.2088,VALID,0,VALID,19.6458,VALID,284,VALID,0,
2014-12-24, 02:36:05,VALID,915.431,VALID,0,VALID,95.0564,VALID,0,VALID,19.6458,VALID,284,VALID,0,
2014-12-24, 02:37:05,VALID,915.444,VALID,0,VALID,95.064,VALID,0,VALID,19.6458,VALID,284,VALID,0,
2014-12-24, 02:38:05,VALID,915.466,VALID,0,VALID,95.0945,VALID,0,VALID,19.6458,VALID,284,VALID,0,
2014-12-24, 02:39:05,VALID,915.474,VALID,0,VALID,95.1555,VALID,0,VALID,19.6458,VALID,284,VALID,0,
2014-12-24, 02:40:05,VALID,915.506,VALID,0,VALID,95.1707,VALID,0,VALID,19.6653,VALID,283,VALID,0,
2014-12-24, 02:41:05,VALID,915.47,VALID,0,VALID,95.2393,VALID,0,VALID,19.6848,VALID,283,VALID,0,
2014-12-24, 02:42:05,VALID,915.426,VALID,0,VALID,95.3537,VALID,0,VALID,19.7238,VALID,283,VALID,0,
2014-12-24, 02:43:05,VALID,915.457,VALID,0,VALID,95.3537,VALID,0,VALID,19.7238,VALID,246,VALID,0,
2014-12-24, 02:44:05,VALID,915.453,VALID,0,VALID,95.3003,VALID,0,VALID,19.7238,VALID,242,VALID,0,
2014-12-24, 02:45:05,VALID,915.437,VALID,0,VALID,94.9192,VALID,0,VALID,19.7613,VALID,356,VALID,0,
2014-12-24, 02:46:05,VALID,915.46,VALID,0,VALID,93.6079,VALID,0,VALID,19.8588,VALID,308,VALID,0,
2014-12-24, 02:47:05,VALID,915.452,VALID,0,VALID,92.6702,VALID,0,VALID,19.9188,VALID,308,VALID,0,
2014-12-24, 02:48:05,VALID,915.42,VALID,0,VALID,92.2128,VALID,0,VALID,19.9368,VALID,308,VALID,0,
2014-12-24, 02:49:05,VALID,915.461,VALID,0,VALID,91.8698,VALID,0,VALID,19.9563,VALID,308,VALID,0,
2014-12-24, 02:50:05,VALID,915.418,VALID,0,VALID,90.8864,VALID,0,VALID,20.0358,VALID,221,VALID,0.1625,
2014-12-24, 02:51:05,VALID,915.373,VALID,0,VALID,90.4366,VALID,0,VALID,20.0944,VALID,253,VALID,0,
2014-12-24, 02:52:05,VALID,915.371,VALID,0,VALID,90.2155,VALID,0,VALID,20.1334,VALID,252,VALID,0,
2014-12-24, 02:53:05,VALID,915.363,VALID,0,VALID,90.2841,VALID,0,VALID,20.1139,VALID,255,VALID,0,
2014-12-24, 02:54:05,VALID,915.355,VALID,0,VALID,90.833,VALID,0,VALID,20.1318,VALID,255,VALID,0,
2014-12-24, 02:55:05,VALID,915.337,VALID,0,VALID,91.0388,VALID,0,VALID,20.0944,VALID,255,VALID,0,
2014-12-24, 02:56:05,VALID,915.32,VALID,0,VALID,91.5496,VALID,0,VALID,20.0733,VALID,255,VALID,0,
2014-12-24, 02:57:05,VALID,915.305,VALID,0,VALID,92.0299,VALID,0,VALID,20.0944,VALID,255,VALID,0,
2014-12-24, 02:58:05,VALID,915.322,VALID,0,VALID,92.0451,VALID,0,VALID,20.0343,VALID,255,VALID,0,
2014-12-24, 02:59:05,VALID,915.299,VALID,0,VALID,92.251,VALID,0,VALID,20.0148,VALID,255,VALID,0,
2014-12-24, 03:00:05,VALID,915.295,VALID,0,VALID,92.2281,VALID,0,VALID,19.9773,VALID,255,VALID,0,
2014-12-24, 03:01:05,VALID,915.298,VALID,0,VALID,92.5102,VALID,0,VALID,19.9563,VALID,255,VALID,0,
2014-12-24, 03:02:05,VALID,915.273,VALID,0,VALID,92.655,VALID,0,VALID,19.9578,VALID,255,VALID,0,
2014-12-24, 03:03:05,VALID,915.305,VALID,0,VALID,92.8151,VALID,0,VALID,19.9563,VALID,255,VALID,0,
2014-12-24, 03:04:05,VALID,915.265,VALID,0,VALID,93.2191,VALID,0,VALID,19.9368,VALID,255,VALID,0,
2014-12-24, 03:05:05,VALID,915.269,VALID,0,VALID,93.1734,VALID,0,VALID,19.8978,VALID,255,VALID,0,
2014-12-24, 03:06:05,VALID,915.269,VALID,0,VALID,93.3411,VALID,0,VALID,19.8798,VALID,255,VALID,0,
2014-12-24, 03:07:05,VALID,915.245,VALID,0,VALID,93.6613,VALID,0,VALID,19.8393,VALID,255,VALID,0,
2014-12-24, 03:08:05,VALID,915.25,VALID,0,VALID,94.4541,VALID,0,VALID,19.8393,VALID,255,VALID,0,
2014-12-24, 03:09:05,VALID,915.204,VALID,0,VALID,94.8734,VALID,0,VALID,19.8603,VALID,255,VALID,0,
2014-12-24, 03:10:05,VALID,915.192,VALID,0,VALID,94.7896,VALID,0,VALID,19.8393,VALID,255,VALID,0,
2014-12-24, 03:11:05,VALID,915.163,VALID,0,VALID,94.7591,VALID,0,VALID,19.8198,VALID,255,VALID,0,
2014-12-24, 03:12:05,VALID,915.165,VALID,0,VALID,94.4313,VALID,0,VALID,19.8198,VALID,255,VALID,0,
2014-12-24, 03:13:05,VALID,915.164,VALID,0,VALID,93.9205,VALID,0,VALID,19.8003,VALID,255,VALID,0,
2014-12-24, 03:14:05,VALID,915.156,VALID,0,VALID,94.0882,VALID,0.107441,VALID,19.8198,VALID,255,VALID,0,
2014-12-24, 03:15:05,VALID,915.152,VALID,0,VALID,94.1111,VALID,0,VALID,19.8798,VALID,255,VALID,0,
2014-12-24, 03:16:05,VALID,915.183,VALID,0,VALID,94.3474,VALID,0,VALID,19.9188,VALID,255,VALID,0,
2014-12-24, 03:17:04,VALID,915.162,VALID,0,VALID,94.2788,VALID,0,VALID,19.9173,VALID,255,VALID,0,
2014-12-24, 03:18:04,VALID,915.167,VALID,0,VALID,93.7147,VALID,0,VALID,19.8978,VALID,255,VALID,0,
2014-12-24, 03:19:04,VALID,915.195,VALID,0,VALID,93.3792,VALID,0,VALID,19.9188,VALID,255,VALID,0,
2014-12-24, 03:20:04,VALID,915.175,VALID,0,VALID,93.3868,VALID,0,VALID,19.8978,VALID,255,VALID,0,
2014-12-24, 03:21:04,VALID,915.167,VALID,0,VALID,93.4631,VALID,0,VALID,19.9188,VALID,255,VALID,0,
2014-12-24, 03:22:04,VALID,915.189,VALID,0,VALID,93.242,VALID,0,VALID,19.8783,VALID,255,VALID,0,
2014-12-24, 03:23:04,VALID,915.18,VALID,0,VALID,93.4021,VALID,0,VALID,19.9173,VALID,255,VALID,0,
2014-12-24, 03:24:04,VALID,915.195,VALID,0,VALID,93.2344,VALID,0,VALID,19.9368,VALID,255,VALID,0,
2014-12-24, 03:25:04,VALID,915.171,VALID,0,VALID,93.303,VALID,0,VALID,19.9173,VALID,255,VALID,0,
2014-12-24, 03:26:04,VALID,915.196,VALID,0,VALID,93.5088,VALID,0,VALID,19.9368,VALID,255,VALID,0,
2014-12-24, 03:27:04,VALID,915.197,VALID,0,VALID,93.242,VALID,0,VALID,19.9173,VALID,255,VALID,0,
2014-12-24, 03:28:04,VALID,915.199,VALID,0,VALID,93.1581,VALID,0,VALID,19.9578,VALID,255,VALID,0,
2014-12-24, 03:29:04,VALID,915.202,VALID,0,VALID,92.6855,VALID,0,VALID,19.9368,VALID,255,VALID,0,
2014-12-24, 03:30:04,VALID,915.169,VALID,0,VALID,92.3119,VALID,0,VALID,19.9773,VALID,255,VALID,0,
2014-12-24, 03:31:04,VALID,915.179,VALID,0,VALID,91.9155,VALID,0,VALID,19.9953,VALID,255,VALID,0,
2014-12-24, 03:32:04,VALID,915.179,VALID,0,VALID,91.8545,VALID,0,VALID,20.0343,VALID,346,VALID,0,
2014-12-24, 03:33:04,VALID,915.165,VALID,0,VALID,91.7707,VALID,0,VALID,20.0538,VALID,355,VALID,0,
2014-12-24, 03:34:04,VALID,915.169,VALID,0,VALID,91.7249,VALID,0.107441,VALID,20.0538,VALID,351,VALID,0,
2014-12-24, 03:35:04,VALID,915.163,VALID,0,VALID,91.6335,VALID,0,VALID,20.0343,VALID,319,VALID,0,
2014-12-24, 03:36:04,VALID,915.162,VALID,0,VALID,91.8317,VALID,0,VALID,20.0749,VALID,5,VALID,0,
2014-12-24, 03:37:04,VALID,915.144,VALID,0,VALID,91.5191,VALID,0,VALID,20.0538,VALID,13,VALID,0,
2014-12-24, 03:38:04,VALID,915.147,VALID,0,VALID,91.4734,VALID,0,VALID,20.0733,VALID,14,VALID,0,
2014-12-24, 03:39:04,VALID,915.132,VALID,0,VALID,91.4657,VALID,0,VALID,20.0928,VALID,13,VALID,0,
2014-12-24, 03:40:04,VALID,915.175,VALID,0,VALID,91.5725,VALID,0,VALID,20.0928,VALID,13,VALID,0,
2014-12-24, 03:41:04,VALID,915.168,VALID,0,VALID,91.6106,VALID,0,VALID,20.1318,VALID,12,VALID,0,
2014-12-24, 03:42:04,VALID,915.178,VALID,0,VALID,91.603,VALID,0,VALID,20.1123,VALID,353,VALID,0.0632813,
2014-12-24, 03:43:04,VALID,915.153,VALID,0,VALID,91.2066,VALID,0,VALID,20.1513,VALID,297,VALID,0,
2014-12-24, 03:44:04,VALID,915.15,VALID,0,VALID,91.1532,VALID,0,VALID,20.1903,VALID,314,VALID,0,
2014-12-24, 03:45:04,VALID,915.192,VALID,0,VALID,91.2218,VALID,0,VALID,20.1903,VALID,313,VALID,0,
2014-12-24, 03:46:04,VALID,915.183,VALID,0,VALID,91.0846,VALID,0,VALID,20.1724,VALID,257,VALID,0,
2014-12-24, 03:47:04,VALID,915.199,VALID,0,VALID,91.2294,VALID,0,VALID,20.1724,VALID,256,VALID,0,
2014-12-24, 03:48:04,VALID,915.223,VALID,0,VALID,91.4048,VALID,0,VALID,20.1513,VALID,298,VALID,0,
2014-12-24, 03:49:04,VALID,915.211,VALID,0,VALID,91.542,VALID,0,VALID,20.1318,VALID,33,VALID,0,
2014-12-24, 03:50:04,VALID,915.214,VALID,0,VALID,91.7478,VALID,0,VALID,20.1123,VALID,33,VALID,0,
2014-12-24, 03:51:04,VALID,915.236,VALID,0,VALID,92.1519,VALID,0,VALID,20.1123,VALID,32,VALID,0,
2014-12-24, 03:52:04,VALID,915.25,VALID,0,VALID,92.1747,VALID,0,VALID,20.1123,VALID,32,VALID,0,
2014-12-24, 03:53:04,VALID,915.226,VALID,0,VALID,92.8456,VALID,0,VALID,20.1123,VALID,33,VALID,0,
2014-12-24, 03:54:04,VALID,915.243,VALID,0,VALID,93.0743,VALID,0,VALID,20.1123,VALID,33,VALID,0,
2014-12-24, 03:55:04,VALID,915.261,VALID,0,VALID,92.9371,VALID,0.107441,VALID,20.1139,VALID,32,VALID,0,
2014-12-24, 03:56:04,VALID,915.248,VALID,0,VALID,92.6321,VALID,0,VALID,20.0733,VALID,33,VALID,0,
2014-12-24, 03:57:04,VALID,915.226,VALID,0,VALID,92.9294,VALID,0,VALID,20.0944,VALID,33,VALID,0,
2014-12-24, 03:58:04,VALID,915.278,VALID,0,VALID,93.0285,VALID,0,VALID,20.0749,VALID,33,VALID,0,